Flag for Brazil Weather past 2 weeks in Recife, Pernambuco, Brazil

Now
72 °F

Partly cloudy.


Feels Like: 69 °F
Forecast: 74 / 82 °F
Wind: 3 mph from South

Location: Recife Aeroporto

Current Time: Aug 5, 2015 at 5:43:07 AM

Latest Report: Aug 5, 2015 at 5:00 AM


Visibility: N/A

Pressure: 30.04 "Hg

Humidity: 88%

Dew point: 68 °F

Location of RecifeLocation

Historic Weather in Recife — Graph

°F

Recife temperature yesterday

Maximum temperature yesterday: 82 °F (at 10:00 AM)
Minimum temperature yesterday: 72 °F (at 3:00 AM)
Average temperature yesterday: 77 °F

Past Weeks' High & Low Weather Summary

 TemperatureHumidityPressure
High84 °F (Jul 25, 12:00 PM)100% (Jul 21, 11:00 PM)30.09 "Hg (Jul 21, 11:00 PM)
Low37 °F (Jul 26, 2:00 PM)25% (Jul 26, 4:00 PM)29.95 "Hg (Jul 25, 2:00 PM)
Average76 °F83%30.02 "Hg
* Reported Jul 21 4:00 AM — Aug 5 4:00 AM, Recife, Weather by CustomWeather, © 2015

Note: Actual official high and low records may vary slightly from our data, if they occured in-between our weather recording intervals... More about our weather records

Advertising

Recife weather history for previous 24 hours

 ConditionsComfort  
Time TempWeatherWind HumidityBarometerVisibility
4:00 AM
Wed, Aug 5
72 °FPassing clouds.2 mph94%30.04 "HgN/A
3:00 AM72 °FLight rain. Partly cloudy.2 mph94%30.04 "Hg6 mi
2:00 AM72 °FLight rain. Passing clouds.2 mph94%30.04 "Hg5 mi
1:00 AM73 °FLight rain. Passing clouds.2 mph89%30.04 "HgN/A
12:00 AM73 °FPassing clouds.6 mph83%30.07 "HgN/A
11:00 PM
Tue, Aug 4
75 °FPassing clouds.7 mph78%30.07 "HgN/A
10:00 PM75 °FPassing clouds.3 mph78%30.07 "HgN/A
9:00 PM75 °FPassing clouds.5 mph78%30.07 "HgN/A
8:00 PM77 °FPassing clouds.8 mph74%30.04 "HgN/A
7:00 PM77 °FPassing clouds.12 mph74%30.04 "HgN/A
6:00 PM77 °FPassing clouds.10 mph74%30.04 "HgN/A
5:00 PM79 °FPassing clouds.14 mph70%30.01 "HgN/A
4:00 PM79 °FSunny.16 mph70%30.01 "Hg10 mi
3:00 PM81 °FPassing clouds.15 mph70%30.01 "HgN/A
2:00 PM82 °FPassing clouds.15 mph62%30.01 "HgN/A
1:00 PM82 °FPassing clouds.14 mph62%30.04 "HgN/A
12:00 PM82 °FPassing clouds.12 mph62%30.07 "HgN/A
11:00 AM82 °FScattered clouds.12 mph62%30.07 "HgN/A
10:00 AM82 °FScattered clouds.14 mph62%30.09 "HgN/A
9:00 AM81 °FScattered clouds.14 mph66%30.09 "HgN/A
8:00 AM79 °FScattered clouds.12 mph70%30.07 "HgN/A
7:00 AM75 °FScattered clouds.3 mph78%30.07 "HgN/A
6:00 AM72 °FScattered clouds.5 mph83%30.04 "HgN/A
5:00 AM72 °FPassing clouds.5 mph83%30.04 "HgN/A
Weather by CustomWeather, © 2015

See weather overviewHow to use our weather pages